Retour au catalogue

SL-8 DEB

ActifLEO
NORAD 22198·DEBRIS·🇷🇺 Russia

Lancé Feb 12, 1991 depuis Plesetsk Cosmodrome

Loading…

Prochains Passages (prochaines 24 heures)

TLE

VieillissantSource: Space-Track

Époque: Sep 11, 2026, 16:44 UTC

1 22198U 91009CS  26254.69780412  .00000031  00000-0  38106-3 0  9992
2 22198  73.9198 348.3959 0146925 303.9339 210.6332 12.30660193594870

Suivez SL-8 DEB en temps réel avec AllMySat

Download on the App Store